STARLINK-34307

导读

STARLINK-34307是美国于2025年6月23日发射的星链卫星,隶属于SpaceX公司的星链星座项目。星链项目旨在构建全球卫星互联网星座,为全球提供高速互联网接入服务,覆盖偏远地区和网络基础设施薄弱区域。该卫星的发射进一步扩充了星链星座的规模,推进了星链全球组网进程,强化星座的覆盖能力与服务稳定性。

Basic Information
目录编号:
64489
目录名称:
STARLINK-34307
国际标识:
2025-133T
轨道中心:
EARTH
卫星名称:
STARLINK-34307
卫星全名:
STARLINK-34307
卫星状态:
在轨 (已飞行438 天)
发射日期:
2025-06-23 UTC
国别 :
美国 (US)
星等 :
--
Orbit Information
数据来源 国际轨道数据 AOE轨道数据
星历时间 2026-09-04T04:00:53+0800
12小时前
查看轨道信息
2026-09-02T16:00:00+0800
2天前
查看轨道信息
半长轴 6840.838km 6840.881km
偏心率 0.0001372 0.0001617
轨道倾角 53.160° 53.161°
近地点辐角 96.927° 63.815°
升交点赤经 9.295° 16.311°
平近点角 263.189° 282.545°
近地点 461.762km 461.637km
远地点 463.64km 463.851km
周期 93.848分钟 93.849分钟
每日圈数 15.344009 15.343865
Detailed Information
使用方式:
暂无
2D Orbit Map
3D Orbit Map
Orbit Altitude Analysis Chart
Orbit Inclination Analysis Chart
Orbit Comprehensive Analysis Chart
View Comprehensive Chart
Conjunction Data List
Event ID Objects TCA Miss Dist (km) Collision Risk Probability Collision Risk Index (CRI) Action
CDM_260904-160306-230506-448921
2026-09-04T
16:03:09+0000
0.853 km
远距离
2.842973E-5 中风险 0.64
CDM_260904-160006-448906-593121
2026-09-04T
16:00:43+0000
1.343 km
极远距离
4.632455E-6 低风险 0.48
CDM_260906-080505-265006-448921
2026-09-06T
08:05:57+0000
2.340 km
极远距离
1.744376E-6 低风险 0.4
CDM_260904-230506-230506-448921
2026-09-04T
23:05:14+0000
2.053 km
极远距离
1.737239E-6 低风险 0.4
CDM_260904-195506-448906-593121
2026-09-04T
19:55:12+0000
1.890 km
极远距离
1.682496E-6 低风险 0.4
CDM_260905-003906-230506-448921
2026-09-05T
00:39:01+0000
2.214 km
极远距离
1.468964E-6 低风险 0.38